Regional Weather Roundup
Issued by NWS

Home | Current Version | Previous Version | Graphics & Text | Print | Product List | Glossary On
Versions: 1 2 3 4 5 6 7 8 9 10 11 12 13 14 15 16 17 18 19 20 21 22 23 24 25 26 27 28 29 30 31 32 33 34 35 36 37 38 39 40 41 42 43 44 45 46 47 48 49 50
000
ASUS45 KABQ 010110
RWRNM
WEATHER ROUNDUP FOR NEW MEXICO
NATIONAL WEATHER SERVICE ALBUQUERQUE NM
600 PM MST SAT JAN 31 2015

NOTE: "FAIR" MEANS FEW OR NO CLOUDS BELOW 12,000 FEET AGL WITH NO
       SIGNIFICANT WEATHER OR OBSTRUCTIONS TO VISION.

      THIS PRODUCT IS RELEASED AS TWO VERSIONS.  ONE VERSION NEAR
      THE TOP OF THE HOUR CONTAINING PRELIMINARY DATA FROM ALBUQUERQUE
      AND OTHER STATIONS.  A FINAL VERSION WITH ADDITIONAL DATA IS
      ISSUED ABOUT 10 MINUTES AFTER THE HOUR.

NMZ501-503-504-510>518-010200-
NORTHWEST PLATEAU/NORTHCENTRAL MOUNTAINS

CITY           SKY/WX    TMP DP  RH WIND       PRES   REMARKS
FARMINGTON     CLOUDY    38  35  89 W10       29.91R WCI  31
LOS ALAMOS     FOG       31  31 100 CALM      29.89R VSB 1/4
SANTA FE       CLOUDY    33  31  92 NW5       29.87R WCI  29
TAOS           CLOUDY    30  28  93 NW3       29.87R
ANGEL FIRE     LGT SNOW  30  28  93 SW12G17     N/A  WCI  21

$$
NMZ402-403-502-505>509-010200-
WESTCENTRAL MOUNTAINS/SOUTHWEST MOUNTAINS

CITY           SKY/WX    TMP DP  RH WIND       PRES   REMARKS
GALLUP         CLOUDY    36  33  89 NW3       29.93R
GRANTS         CLOUDY    35  33  92 NW5       29.93R WCI  31
SILVER CITY    MOCLDY    46  41  81 NW7       29.93R

$$
NMZ407-409-411-412-010200-
SOUTHERN DESERTS

CITY           SKY/WX    TMP DP  RH WIND       PRES   REMARKS
LORDSBURG      CLOUDY    46  45  93 CALM      29.91R
DEMING         CLOUDY    50  45  83 NW8       29.90R
LAS CRUCES     CLOUDY    50  44  78 SW6       29.90S
HOLLOMAN AFB   MOCLDY    49  46  90 CALM      29.87R
ALAMOGORDO     CLOUDY    48  45  87 CALM      29.89S
T OR C         CLOUDY    49  44  83 S6        29.87R

$$
NMZ519>523-010200-
CENTRAL VALLEYS/CENTRAL HIGHLANDS

CITY           SKY/WX    TMP DP  RH WIND       PRES   REMARKS
ALBUQUERQUE    MOCLDY    40  35  83 CALM      29.90R
DOUBLE EAGLE   PTCLDY    34  32  93 W3        29.90S
MORIARTY ARPT  FAIR      38  32  80 W8        29.88R WCI  32
CLINES CORNERS MOCLDY    34  32  92 W16       29.83R WCI  24
BELEN          FAIR      39  37  91 NE3       29.91R
SOCORRO        DRIZZLE   46  41  84 N3        29.90R

$$
NMZ524>526-539-540-010200-
SOUTHCENTRAL MOUNTAINS

CITY           SKY/WX    TMP DP  RH WIND       PRES   REMARKS
RUIDOSO        CLOUDY    39  34  81 W6        29.90R WCI  35

$$
NMZ527>531-010200-
NORTHEAST HIGHLANDS/NORTHEAST PLAINS

CITY           SKY/WX    TMP DP  RH WIND       PRES   REMARKS
LAS VEGAS      MOCLDY    32  30  92 CALM      29.78R
RATON          CLOUDY    32  29  88 NE5       29.77R WCI  27
CLAYTON        PTCLDY    37  33  85 SW7       29.76R WCI  32

$$
NMZ532>537-010200-
EASTCENTRAL PLAINS

CITY           SKY/WX    TMP DP  RH WIND       PRES   REMARKS
TUCUMCARI      MOCLDY    40  36  86 CALM      29.78S
CANNON AFB     NOT AVBL
CLOVIS AIRPORT CLOUDY    41  39  93 SW9       29.82F

$$
NMZ028-029-538-010200-
SOUTHEAST PLAINS

CITY           SKY/WX    TMP DP  RH WIND       PRES   REMARKS
ROSWELL        CLOUDY    46  41  82 N6        29.86R
ARTESIA        PTCLDY    46  46 100 E7        29.85R
CARLSBAD       PTCLDY    47  43  86 S5        29.85S
HOBBS          CLOUDY    46  46 100 S6        29.87R FOG


$$


USA.gov is the U.S. government's official web portal to all federal, state and local government web resources and services.